Flag for Argentina Weather past 2 weeks in Mendoza, Mendoza, Argentina

Now
48 °F

Clear.


Feels Like: 46 °F
Forecast: 39 / 68 °F
Wind: 5 mph from Southwest

Location: Mendoza Aerodrome

Current Time: Jun 2, 2015 at 2:48:37 AM

Latest Report: Jun 2, 2015 at 2:00 AM


Visibility: 10 mi

Pressure: 29.95 "Hg

Humidity: 76%

Dew point: 41 °F

Location of MendozaLocation

Historic Weather in Mendoza — Graph

°F

Mendoza temperature yesterday

Maximum temperature yesterday: 68 °F (at 3:00 PM)
Minimum temperature yesterday: 41 °F (at 8:00 AM)
Average temperature yesterday: 56 °F

Past Weeks' High & Low Weather Summary

 TemperatureHumidityPressure
High75 °F (May 18, 4:00 PM)94% (May 19, 5:00 AM)30.18 "Hg (May 19, 5:00 AM)
Low37 °F (May 25, 8:00 AM)22% (May 29, 3:00 PM)29.71 "Hg (May 20, 4:00 PM)
Average56 °F63%29.99 "Hg
* Reported May 18 2:00 AM — Jun 2 2:00 AM, Mendoza, Weather by CustomWeather, © 2015

Note: Actual official high and low records may vary slightly from our data, if they occured in-between our weather recording intervals... More about our weather records

Advertising

Mendoza weather history for previous 24 hours

 ConditionsComfort  
Time TempWeatherWind HumidityBarometerVisibility
2:00 AM
Tue, Jun 2
48 °FClear.5 mph76%29.95 "Hg10 mi
1:00 AM48 °FClear.No wind76%29.95 "Hg10 mi
12:00 AM50 °FClear.No wind76%29.98 "Hg10 mi
11:00 PM
Mon, Jun 1
55 °FClear.5 mph67%29.95 "Hg10 mi
10:00 PM57 °FClear.3 mph59%29.98 "Hg10 mi
9:00 PM59 °FClear.No wind59%29.95 "Hg10 mi
8:00 PM59 °FClear.2 mph59%29.95 "Hg10 mi
7:00 PM63 °FClear.2 mph52%29.92 "Hg10 mi
6:00 PM68 °FClear.2 mph46%29.92 "Hg10 mi
5:00 PM68 °FSunny.6 mph40%29.92 "Hg10 mi
4:00 PM68 °FSunny.6 mph43%29.89 "Hg10 mi
3:00 PM68 °FSunny.3 mph43%29.89 "Hg10 mi
2:00 PM66 °FSunny.6 mph46%29.92 "Hg10 mi
1:00 PM66 °FSunny.3 mph46%29.95 "Hg10 mi
12:00 PM59 °FSunny.2 mph68%30.01 "Hg10 mi
11:00 AM59 °FSunny.3 mph55%30.01 "Hg10 mi
10:00 AM52 °FSunny.2 mph67%30.04 "Hg10 mi
9:00 AM43 °FSunny.2 mph87%30.01 "Hg10 mi
8:00 AM41 °FSunny.No wind93%30.01 "Hg10 mi
7:00 AM43 °FClear.No wind87%29.98 "Hg10 mi
6:00 AM43 °FClear.No wind87%30.01 "Hg10 mi
5:00 AM48 °FClear.No wind87%30.01 "Hg10 mi
4:00 AM48 °FClear.No wind87%30.01 "Hg10 mi
3:00 AM48 °FClear.No wind87%30.01 "Hg10 mi
2:00 AM50 °FClear.No wind82%30.01 "Hg10 mi
Weather by CustomWeather, © 2015

See weather overviewHow to use our weather pages